QPF
0.00 0.03 0.06 0.08 0.08 0.02 0.03 0.47 0.31 0.03 0.00 0.00 0.00 0.00 0.00 0.00 0.00 0.00 0.00 0.00 0.01 0.01 0.03 0.05 0.01 0.01 0.02 0.02 0.00 0.01 0.01 0.01 0.00
0.00 0.01 0.05 0.12 0.14 0.06 0.03 0.10 0.30 0.18 0.02 0.00 0.00 0.01 0.00 0.00 0.01 0.00 0.00 0.00 0.00 0.00 0.02 0.02 0.15 0.14 0.09 0.02 0.01 0.00 0.01 0.01 0.01
0.00 0.00 0.02 0.09 0.12 0.14 0.12 0.07 0.09 0.21 0.10 0.01 0.00 0.01 0.00 0.00 0.00 0.00 0.00 0.00 0.00 0.00 0.02 0.02 0.32 0.39 0.05 0.03 0.02 0.01 0.02 0.03 0.02
0.00 0.00 0.00 0.00 0.03 0.06 0.08 0.03 0.13 0.48 0.60 0.28 0.07 0.01 0.01 0.02 0.03 0.01 0.01 0.02 0.00 0.00 0.02 0.02 0.01 0.03 0.01 0.03 0.00 0.01 0.00 0.01 0.00
0.00 0.00 0.00 0.00 0.01 0.02 0.06 0.08 0.06 0.56 1.23 0.68 0.42 0.17 0.09 0.05 0.05 0.04 0.03 0.01 0.00 0.00 0.00 0.00 0.00 0.00 0.00 0.00 0.00 0.00 0.00 0.00 0.01
0.00 0.00 0.00 0.00 0.00 0.02 0.06 0.11 0.12 0.16 0.80 0.85 0.39 0.18 0.11 0.11 0.07 0.02 0.04 0.01 0.00 0.00 0.00 0.00 0.00 0.00 0.00 0.00 0.00 0.00 0.00 0.00 0.01
0.00 0.00 0.00 0.00 0.00 0.00 0.01 0.04 0.16 0.20 0.13 0.62 0.37 0.38 0.26 0.17 0.14 0.06 0.01 0.00 0.00 0.01 0.00 0.00 0.00 0.00 0.00 0.00 0.00 0.00 0.00 0.00 0.00
0.00 0.00 0.00 0.00 0.00 0.00 0.00 0.00 0.03 0.14 0.15 0.28 0.24 0.38 0.83 0.50 0.22 0.17 0.14 0.06 0.02 0.00 0.01 0.00 0.00 0.00 0.00 0.00 0.00 0.00 0.00 0.00 0.00
0.00 0.00 0.00 0.00 0.00 0.00 0.00 0.00 0.00 0.01 0.03 0.16 0.28 0.35 0.39 0.35 0.20 0.44 0.38 0.16 0.10 0.08 0.03 0.01 0.00 0.00 0.00 0.00 0.00 0.00 0.00 0.00 0.00
0.00 0.00 0.00 0.00 0.00 0.00 0.00 0.00 0.00 0.00 0.00 0.02 0.06 0.27 0.46 0.44 0.28 0.36 0.29 0.10 0.10 0.12 0.05 0.07 0.01 0.00 0.00 0.00 0.00 0.00 0.00 0.00 0.00
0.00 0.00 0.00 0.00 0.00 0.00 0.00 0.00 0.00 0.00 0.00 0.00 0.00 0.00 0.08 0.22 0.36 0.33 0.29 0.17 0.11 0.08 0.10 0.03 0.05 0.08 0.06 0.02 0.00 0.01 0.02 0.03 0.01
0.00 0.00 0.00 0.00 0.00 0.00 0.00 0.00 0.00 0.00 0.00 0.00 0.00 0.00 0.00 0.00 0.05 0.25 0.33 0.29 0.30 0.30 0.29 0.20 0.11 0.09 0.16 0.10 0.01 0.07 0.10 0.14 0.02
0.00 0.00 0.00 0.00 0.00 0.00 0.00 0.00 0.00 0.00 0.00 0.00 0.00 0.00 0.00 0.00 0.00 0.00 0.04 0.10 0.10 0.11 0.14 0.20 0.29 0.32 0.35 0.39 0.31 0.44 0.36 0.28 0.14
0.00 0.00 0.00 0.00 0.00 0.00 0.00 0.00 0.00 0.00 0.00 0.00 0.00 0.01 0.01 0.00 0.00 0.00 0.00 0.03 0.08 0.07 0.06 0.11 0.11 0.11 0.29 0.35 0.38 0.31 0.41 0.38 0.29
0.00 0.00 0.00 0.00 0.00 0.00 0.00 0.00 0.00 0.00 0.00 0.00 0.01 0.01 0.01 0.00 0.00 0.00 0.00 0.00 0.00 0.00 0.02 0.06 0.08 0.06 0.10 0.24 0.28 0.26 0.31 0.28 0.20
0.00 0.00 0.00 0.00 0.00 0.00 0.00 0.00 0.00 0.00 0.00 0.00 0.00 0.02 0.01 0.00 0.00 0.00 0.00 0.00 0.00 0.00 0.00 0.00 0.01 0.02 0.02 0.04 0.07 0.07 0.10 0.10 0.11
0.00 0.00 0.00 0.00 0.00 0.00 0.00 0.00 0.00 0.00 0.00 0.00 0.00 0.00 0.01 0.00 0.00 0.00 0.00 0.00 0.00 0.00 0.00 0.00 0.00 0.00 0.00 0.00 0.00 0.00 0.01 0.01 0.04
0.00 0.00 0.00 0.00 0.00 0.00 0.00 0.00 0.00 0.00 0.00 0.00 0.00 0.00 0.01 0.01 0.00 0.00 0.00 0.00 0.00 0.00 0.00 0.00 0.00 0.00 0.00 0.00 0.00 0.01 0.05 0.07 0.07
0.00 0.00 0.00 0.00 0.00 0.00 0.00 0.00 0.00 0.00 0.00 0.00 0.00 0.00 0.00 0.00 0.00 0.00 0.00 0.00 0.00 0.00 0.00 0.00 0.00 0.00 0.00 0.00 0.00 0.02 0.14 0.27 0.46
0.00 0.00 0.00 0.00 0.00 0.00 0.00 0.00 0.00 0.00 0.00 0.00 0.00 0.00 0.00 0.00 0.00 0.00 0.00 0.00 0.00 0.00 0.00 0.00 0.00 0.00 0.00 0.00 0.01 0.02 0.06 0.12 0.19
MSLP
1007.03 1007.61 1008.55 1009.37 1010.99 1011.73 1012.09 1011.72 1012.05 1012.72 1012.62 1012.97 1013.29 1013.38 1014.00 1014.33 1014.58 1014.71 1015.02 1015.19 1015.38 1015.53 1015.62 1015.82 1015.54 1015.58 1015.63 1015.87 1016.08 1016.15 1016.54 1016.87 1017.08
1006.13 1007.28 1008.90 1009.55 1010.66 1011.09 1011.05 1011.15 1011.26 1012.02 1012.42 1012.46 1012.96 1012.99 1013.89 1014.26 1014.57 1014.79 1014.83 1014.94 1015.08 1015.28 1015.02 1015.46 1015.30 1015.47 1015.63 1015.70 1015.73 1015.84 1016.55 1016.97 1016.99
1006.24 1007.02 1008.25 1009.26 1010.07 1010.12 1010.28 1010.88 1011.08 1012.33 1012.89 1011.68 1012.26 1012.77 1013.55 1014.21 1014.35 1014.36 1014.57 1014.55 1014.60 1014.68 1015.01 1015.09 1015.08 1015.35 1015.75 1015.82 1015.83 1015.81 1016.25 1016.73 1016.85
1005.85 1006.90 1007.72 1008.78 1009.15 1009.57 1009.90 1010.63 1011.64 1012.75 1013.06 1014.16 1012.32 1012.37 1012.81 1013.53 1014.10 1014.20 1014.32 1014.39 1014.40 1014.56 1014.64 1014.66 1014.92 1014.86 1015.36 1015.79 1015.76 1015.58 1015.75 1016.19 1016.45
1006.36 1006.83 1007.77 1008.81 1009.33 1009.61 1009.98 1010.40 1011.38 1013.44 1012.96 1014.44 1014.08 1013.88 1014.61 1013.35 1013.44 1013.75 1014.25 1014.25 1014.19 1014.43 1014.48 1014.60 1014.61 1014.85 1015.19 1015.56 1015.49 1015.49 1015.65 1015.84 1016.00
1006.59 1007.26 1007.61 1008.33 1009.54 1010.00 1010.78 1010.82 1010.74 1011.42 1012.06 1013.02 1012.74 1013.36 1013.83 1014.23 1013.19 1013.31 1013.67 1013.70 1013.75 1013.84 1014.25 1014.47 1014.64 1014.88 1014.79 1014.77 1014.78 1015.08 1015.34 1015.50 1015.79
1006.67 1007.34 1007.68 1008.40 1009.07 1009.59 1010.31 1010.48 1010.92 1011.77 1012.19 1012.10 1011.63 1012.59 1013.25 1014.01 1013.94 1012.48 1012.31 1012.81 1013.13 1013.14 1013.27 1013.73 1014.02 1014.06 1014.11 1014.24 1014.48 1014.76 1015.03 1015.22 1015.43
1006.54 1007.15 1007.63 1008.20 1008.98 1009.54 1010.00 1010.85 1011.35 1011.92 1011.70 1012.05 1012.47 1011.74 1012.72 1014.22 1013.30 1013.61 1012.78 1012.35 1012.16 1012.46 1012.56 1012.68 1013.16 1013.56 1013.79 1013.89 1014.13 1014.44 1014.70 1014.94 1015.09
1006.40 1006.86 1007.16 1007.88 1008.54 1009.20 1009.61 1010.19 1010.70 1011.38 1011.78 1012.22 1012.25 1012.24 1012.58 1012.82 1013.30 1012.41 1012.11 1012.49 1012.61 1012.18 1011.92 1012.10 1012.42 1012.95 1013.26 1013.51 1013.62 1013.80 1014.10 1014.36 1014.52
1005.78 1006.49 1006.89 1007.49 1008.42 1008.97 1009.53 1009.83 1009.97 1010.60 1011.03 1011.02 1011.44 1012.09 1012.68 1012.54 1012.35 1011.97 1010.99 1011.19 1011.23 1011.98 1011.50 1011.77 1012.04 1012.32 1012.71 1012.87 1012.98 1013.10 1013.39 1013.69 1013.92
1005.54 1006.32 1006.84 1007.33 1008.02 1008.73 1009.40 1009.69 1009.99 1010.22 1010.70 1010.91 1011.14 1011.54 1011.45 1011.52 1011.74 1011.30 1011.30 1011.37 1011.80 1011.24 1011.14 1011.16 1011.55 1012.00 1012.12 1012.45 1012.57 1012.70 1012.84 1013.12 1013.50
1004.87 1005.73 1006.58 1007.32 1007.96 1008.64 1009.11 1009.67 1010.09 1010.39 1010.60 1010.82 1011.05 1011.01 1010.90 1011.08 1011.10 1011.25 1011.28 1011.31 1010.92 1010.90 1010.90 1011.21 1011.37 1011.30 1011.46 1011.85 1011.84 1011.87 1012.24 1012.80 1013.12
1004.82 1005.59 1006.36 1007.32 1008.00 1008.57 1009.21 1009.49 1009.78 1010.24 1010.58 1010.74 1011.01 1010.90 1010.63 1010.63 1010.74 1010.86 1010.86 1010.97 1010.87 1010.78 1010.59 1010.81 1011.05 1011.07 1011.07 1011.14 1011.48 1011.62 1012.04 1012.47 1012.69
1004.69 1005.66 1006.51 1007.51 1008.12 1008.82 1009.42 1009.74 1010.03 1010.44 1010.41 1010.59 1010.49 1010.71 1010.89 1011.18 1011.27 1011.23 1011.18 1011.33 1011.34 1010.99 1010.96 1010.88 1010.94 1010.76 1011.01 1011.52 1011.69 1011.68 1011.90 1012.22 1012.52
1004.83 1005.80 1006.41 1007.43 1008.27 1008.76 1009.08 1009.56 1010.00 1010.45 1010.74 1010.61 1010.53 1010.48 1010.76 1011.08 1011.32 1011.52 1011.50 1011.51 1011.36 1011.35 1011.34 1011.08 1011.04 1011.39 1011.56 1011.48 1011.80 1012.00 1012.16 1012.15 1012.25
1005.42 1006.01 1006.63 1007.26 1008.10 1008.71 1008.97 1009.34 1009.81 1010.47 1010.62 1010.76 1011.07 1011.09 1011.18 1011.32 1011.68 1011.80 1011.89 1011.99 1012.09 1012.10 1011.99 1011.81 1011.56 1011.67 1011.81 1012.17 1012.46 1012.68 1012.63 1012.43 1012.24
1005.71 1006.09 1006.74 1007.26 1007.90 1008.54 1009.12 1009.39 1009.79 1010.23 1010.47 1010.61 1010.90 1011.23 1011.58 1011.89 1012.22 1012.67 1012.82 1012.71 1012.63 1012.83 1012.75 1012.62 1012.65 1012.51 1012.72 1012.98 1013.10 1013.16 1013.02 1012.86 1012.47
1005.60 1006.09 1006.47 1006.99 1007.57 1008.29 1008.96 1009.33 1009.81 1010.25 1010.49 1010.64 1011.16 1011.48 1011.66 1011.85 1012.19 1012.84 1013.49 1013.87 1013.90 1013.62 1013.50 1013.37 1013.07 1013.24 1013.51 1013.62 1013.59 1013.48 1013.16 1013.07 1013.12
1005.24 1005.92 1006.35 1006.94 1007.40 1007.98 1008.67 1009.03 1009.66 1010.15 1010.40 1010.65 1011.07 1011.69 1011.97 1012.04 1012.30 1012.80 1013.41 1014.00 1014.22 1014.23 1014.01 1013.59 1013.46 1013.53 1013.62 1014.06 1013.94 1013.83 1013.57 1013.09 1013.54
1005.10 1005.76 1006.20 1006.69 1007.10 1007.55 1008.06 1008.53 1009.45 1009.90 1010.21 1010.64 1011.06 1011.53 1012.09 1012.23 1012.35 1012.60 1013.10 1013.79 1014.22 1014.48 1014.64 1014.28 1014.27 1014.13 1014.17 1014.10 1013.88 1014.13 1014.24 1014.33 1014.37
Thickness
5794 5789 5790 5781 5775 5766 5769 5774 5773 5776 5775 5773 5773 5777 5776 5777 5778 5777 5777 5778 5779 5780 5781 5782 5789 5789 5788 5787 5787 5787 5783 5784 5784
5793 5791 5781 5784 5777 5771 5774 5780 5749 5775 5777 5773 5772 5776 5773 5775 5776 5775 5776 5778 5782 5782 5787 5788 5791 5790 5790 5791 5789 5788 5785 5780 5783
5787 5788 5781 5776 5777 5784 5786 5783 5782 5771 5775 5786 5772 5773 5772 5770 5773 5778 5778 5781 5784 5786 5787 5788 5789 5788 5787 5788 5788 5789 5786 5781 5782
5793 5787 5783 5778 5782 5783 5781 5780 5773 5765 5756 5756 5776 5772 5774 5771 5768 5772 5776 5779 5782 5782 5787 5788 5787 5789 5787 5785 5788 5790 5789 5784 5783
5789 5787 5780 5776 5774 5776 5772 5774 5769 5742 5749 5746 5754 5761 5755 5761 5769 5768 5767 5772 5778 5780 5783 5785 5786 5788 5786 5786 5787 5787 5788 5785 5784
5783 5782 5782 5777 5768 5767 5762 5765 5771 5762 5751 5733 5760 5760 5760 5760 5759 5767 5764 5770 5775 5778 5778 5781 5783 5784 5786 5788 5788 5786 5787 5785 5782
5783 5779 5779 5774 5769 5766 5764 5767 5765 5757 5756 5757 5766 5757 5759 5756 5754 5765 5773 5773 5774 5779 5781 5779 5781 5783 5784 5785 5787 5786 5784 5784 5782
5782 5777 5777 5773 5766 5763 5763 5756 5757 5751 5756 5755 5749 5758 5750 5747 5755 5755 5764 5773 5780 5780 5783 5786 5783 5781 5783 5785 5783 5783 5781 5780 5780
5775 5775 5779 5775 5769 5760 5762 5758 5755 5749 5749 5743 5746 5751 5750 5751 5746 5764 5770 5767 5770 5779 5783 5783 5785 5781 5781 5781 5784 5785 5783 5782 5780
5780 5777 5777 5771 5766 5761 5757 5757 5759 5752 5747 5755 5752 5747 5740 5743 5754 5757 5774 5777 5776 5772 5781 5782 5781 5783 5781 5781 5783 5785 5784 5782 5782
5779 5776 5773 5772 5763 5759 5753 5755 5754 5754 5749 5747 5746 5746 5750 5751 5750 5761 5764 5767 5765 5774 5777 5782 5779 5778 5779 5779 5781 5782 5782 5781 5780
5784 5778 5774 5768 5764 5757 5755 5751 5749 5747 5746 5744 5741 5745 5749 5750 5754 5755 5757 5759 5765 5768 5773 5773 5773 5777 5779 5777 5779 5781 5779 5775 5775
5784 5779 5773 5764 5761 5755 5748 5748 5749 5744 5741 5740 5737 5739 5746 5750 5750 5752 5756 5757 5757 5762 5767 5767 5766 5770 5772 5773 5773 5773 5771 5770 5771
5780 5772 5766 5761 5756 5747 5742 5741 5740 5736 5737 5736 5741 5740 5737 5736 5738 5741 5743 5744 5746 5751 5755 5758 5759 5763 5761 5762 5763 5765 5763 5763 5763
5770 5763 5760 5757 5747 5743 5740 5737 5733 5730 5726 5731 5734 5737 5734 5732 5732 5733 5735 5735 5738 5741 5742 5746 5749 5749 5749 5752 5751 5752 5753 5754 5755
5757 5754 5751 5750 5743 5738 5737 5734 5730 5722 5723 5724 5721 5723 5723 5724 5723 5724 5725 5724 5725 5726 5728 5732 5734 5735 5736 5736 5736 5736 5738 5743 5745
5749 5747 5742 5741 5736 5732 5729 5728 5725 5721 5719 5718 5718 5716 5713 5712 5710 5707 5708 5710 5712 5712 5714 5715 5714 5718 5717 5716 5718 5721 5725 5729 5733
5742 5740 5741 5737 5730 5724 5723 5722 5719 5715 5714 5713 5709 5707 5708 5709 5706 5698 5692 5690 5691 5698 5696 5699 5704 5703 5702 5703 5704 5707 5710 5713 5716
5740 5736 5734 5728 5725 5719 5718 5718 5713 5709 5708 5706 5703 5698 5697 5699 5698 5694 5689 5686 5683 5681 5682 5686 5688 5689 5692 5688 5689 5690 5692 5698 5697
5738 5732 5729 5725 5721 5718 5715 5715 5709 5704 5702 5700 5696 5693 5688 5688 5688 5687 5683 5678 5675 5674 5670 5671 5673 5675 5676 5679 5681 5678 5677 5677 5677